Home   Weather   Kapurthala   Past weeks

Flag for India Past Weather in Kapurthala, Punjab, India — Yesterday and Last 2 Weeks

Now
52 °F

Fog.


Feels Like: 52 °F
Forecast: 49 / 74 °F
Wind: No wind

Location: Amritsar Airport

Current Time: Dec 9, 2016 at 5:40:03 am

Latest Report: Dec 9, 2016 at 5:00 am


Visibility: 0 mi

Pressure: 29.95 "Hg

Humidity: 100%

Dew Point: 52 °F

Location of KapurthalaLocation

Past Weather in Kapurthala — Graph

°F

Kapurthala Temperature Yesterday

Maximum temperature yesterday: 66 °F (at 1:30 pm)
Minimum temperature yesterday: 50 °F (at 5:00 am)
Average temperature yesterday: 57 °F

High & Low Weather Summary for the Past Weeks

 TemperatureHumidityPressure
High82 °F (Nov 25, 3:00 pm)100% (Nov 24, 3:30 am)30.18 "Hg (Nov 24, 3:30 am)
Low45 °F (Nov 28, 7:30 am)17% (Nov 28, 2:30 pm)29.89 "Hg (Nov 28, 3:30 pm)
Average62 °F75%30.03 "Hg
* Reported Nov 24 3:30 am — Dec 9 4:00 am, Kapurthala, Weather by CustomWeather, © 2016

Note: Actual official high and low records may vary slightly from our data, if they occured in-between our weather recording intervals... More about our weather records

Advertising

Kapurthala Weather History for the Previous 24 Hours

Scroll right to see more
 ConditionsComfort  
Time TempWeatherWind HumidityBarometerVisibility
4:00 am
Fri, Dec 9
52 °FFog.No wind100%29.95 "Hg0 mi
3:00 am54 °FFog.No wind100%29.95 "Hg0 mi
2:30 am54 °FFog.No wind100%29.98 "Hg0 mi
1:30 am54 °FFog.No wind100%29.98 "Hg0 mi
1:00 am54 °FFog.No wind100%29.98 "Hg0 mi
12:30 am54 °FFog.No wind100%30.01 "Hg0 mi
12:00 am54 °FFog.No wind100%30.01 "Hg0 mi
11:30 pm
Thu, Dec 8
54 °FFog.No wind100%30.01 "Hg0 mi
11:00 pm54 °FFog.No wind100%30.01 "Hg0 mi
10:30 pm55 °FFog.No wind100%30.01 "Hg0 mi
10:00 pm55 °FFog.No wind100%30.01 "Hg0 mi
9:30 pm55 °FFog.No wind100%30.01 "Hg0 mi
8:30 pm55 °FFog.No wind100%30.01 "Hg0 mi
8:00 pm57 °FFog.No wind100%30.01 "Hg1 mi
7:00 pm61 °FFog.No wind100%29.98 "Hg1 mi
6:00 pm63 °FFog.No wind100%29.98 "Hg1 mi
5:30 pm64 °FFog.No wind100%29.98 "Hg1 mi
5:00 pm66 °FFog.No wind100%29.98 "Hg1 mi
2:50 pm66 °FFog.2 mph100%30.01 "Hg1 mi
2:30 pm66 °FFog.2 mph100%30.01 "Hg1 mi
2:00 pm66 °FFog.2 mph100%30.01 "Hg0 mi
1:30 pm66 °FFog.2 mph100%30.01 "Hg0 mi
1:00 pm63 °FFog.No wind100%30.04 "Hg0 mi
12:30 pm61 °FFog.No wind100%30.04 "Hg0 mi
12:00 pm59 °FFog.No wind100%30.07 "Hg0 mi
11:30 am57 °FFog.No wind100%30.07 "Hg0 mi
11:00 am57 °FFog.No wind100%30.09 "Hg0 mi
10:30 am55 °FFog.No wind100%30.09 "Hg0 mi
10:00 am55 °FFog.No wind100%30.07 "Hg0 mi
9:30 am55 °FFog.No wind100%30.07 "Hg0 mi
9:00 am54 °FFog.No wind100%30.07 "Hg0 mi
8:00 am54 °FFog.2 mph100%30.04 "Hg0 mi
7:00 am50 °FFog.No wind100%30.04 "Hg0 mi
6:30 am50 °FFog.No wind100%30.01 "Hg0 mi
6:01 am50 °FFog.No wind100%30.01 "Hg0 mi
5:30 am50 °FFog.No wind100%30.01 "Hg0 mi
5:00 am50 °FFog.No wind100%30.01 "Hg0 mi
Weather by CustomWeather, © 2016

See weather overviewHow to use our weather pages